Time,TemperatureF,DewpointF,PressureIn,WindDirection,WindDirectionDegrees,WindSpeedMPH,WindSpeedGustMPH,Humidity,HourlyPrecipIn,Conditions,Clouds,dailyrainin,SolarRadiationWatts/m^2,SoftwareType,DateUTC
2013-02-17 00:00:00,27.0,18.0,-100.00,SSE,166,7.0,12.0,68,-99.99,,,0.00,-0.200000,,2013-02-17 08:00:00,
2013-02-17 00:52:00,27.0,18.0,-100.00,SSE,166,7.0,12.0,68,-99.99,,,0.00,-0.200000,,2013-02-17 08:52:00,
2013-02-17 01:00:00,27.0,16.0,-100.00,SW,227,6.0,9.0,61,-99.99,,,0.00,-0.200000,,2013-02-17 09:00:00,
2013-02-17 01:52:00,27.0,16.0,-100.00,SW,227,6.0,9.0,61,-99.99,,,0.00,-0.200000,,2013-02-17 09:52:00,
2013-02-17 02:00:00,26.0,16.0,-100.00,SW,221,5.0,7.0,65,-99.99,,,0.00,-0.200000,,2013-02-17 10:00:00,
2013-02-17 02:52:00,26.0,16.0,-100.00,SW,221,5.0,7.0,65,-99.99,,,0.00,-0.200000,,2013-02-17 10:52:00,
2013-02-17 03:00:00,26.0,17.0,-100.00,SW,216,5.0,7.0,69,-99.99,,,0.00,-0.200000,,2013-02-17 11:00:00,
2013-02-17 03:52:00,26.0,17.0,-100.00,SW,216,5.0,7.0,69,-99.99,,,0.00,-0.200000,,2013-02-17 11:52:00,
2013-02-17 04:00:00,27.0,17.0,-100.00,SSW,210,5.0,7.0,66,-99.99,,,0.00,-0.200000,,2013-02-17 12:00:00,
2013-02-17 04:52:00,27.0,17.0,-100.00,SSW,210,5.0,7.0,66,-99.99,,,0.00,-0.200000,,2013-02-17 12:52:00,
2013-02-17 05:00:00,27.0,17.0,-100.00,South,179,5.0,7.0,66,-99.99,,,-99.99,0.200000,,2013-02-17 13:00:00,
2013-02-17 05:52:00,27.0,17.0,-100.00,South,179,5.0,7.0,66,-99.99,,,-99.99,0.200000,,2013-02-17 13:52:00,
2013-02-17 06:00:00,27.0,15.0,-100.00,West,261,4.0,6.0,62,-99.99,,,0.00,-0.200000,,2013-02-17 14:00:00,
2013-02-17 06:53:00,27.0,15.0,-100.00,West,261,4.0,6.0,62,-99.99,,,0.00,-0.200000,,2013-02-17 14:53:00,
2013-02-17 07:00:00,26.0,15.0,-100.00,SSW,203,2.0,5.0,63,-99.99,,,0.00,0.200000,,2013-02-17 15:00:00,
2013-02-17 07:52:00,26.0,15.0,-100.00,SSW,203,2.0,5.0,63,-99.99,,,0.00,0.200000,,2013-02-17 15:52:00,
2013-02-17 08:00:00,27.0,14.0,-100.00,South,189,3.0,6.0,58,-99.99,,,0.00,22.200001,,2013-02-17 16:00:00,
2013-02-17 08:52:00,27.0,14.0,-100.00,South,189,3.0,6.0,58,-99.99,,,0.00,22.200001,,2013-02-17 16:52:00,
2013-02-17 09:00:00,29.0,15.0,-100.00,SW,217,3.0,6.0,54,-99.99,,,0.00,149.699997,,2013-02-17 17:00:00,
2013-02-17 09:52:00,29.0,15.0,-100.00,SW,217,3.0,6.0,54,-99.99,,,0.00,149.699997,,2013-02-17 17:52:00,
2013-02-17 10:00:00,31.0,16.0,-100.00,West,264,3.0,5.0,53,-99.99,,,0.00,234.100006,,2013-02-17 18:00:00,
2013-02-17 10:52:00,31.0,16.0,-100.00,West,264,3.0,5.0,53,-99.99,,,0.00,234.100006,,2013-02-17 18:52:00,
2013-02-17 11:00:00,31.0,16.0,-100.00,NW,313,3.0,6.0,53,-99.99,,,0.00,490.799988,,2013-02-17 19:00:00,
2013-02-17 11:52:00,31.0,16.0,-100.00,NW,313,3.0,6.0,53,-99.99,,,0.00,490.799988,,2013-02-17 19:52:00,
2013-02-17 12:00:00,32.0,17.0,-100.00,SW,215,3.0,6.0,54,-99.99,,,0.00,540.400024,,2013-02-17 20:00:00,
2013-02-17 12:52:00,32.0,17.0,-100.00,SW,215,3.0,6.0,54,-99.99,,,0.00,540.400024,,2013-02-17 20:52:00,
2013-02-17 13:00:00,32.0,18.0,-100.00,NNW,331,2.0,5.0,57,-99.99,,,0.00,389.700012,,2013-02-17 21:00:00,
2013-02-17 13:53:00,32.0,18.0,-100.00,NNW,331,2.0,5.0,57,-99.99,,,0.00,389.700012,,2013-02-17 21:53:00,
2013-02-17 14:00:00,32.0,20.0,-100.00,WSW,254,2.0,4.0,61,-99.99,,,0.00,250.300003,,2013-02-17 22:00:00,
2013-02-17 14:52:00,32.0,20.0,-100.00,WSW,254,2.0,4.0,61,-99.99,,,0.00,250.300003,,2013-02-17 22:52:00,
2013-02-17 15:00:00,31.0,19.0,-100.00,West,275,2.0,4.0,62,-99.99,,,0.00,248.600006,,2013-02-17 23:00:00,
2013-02-17 15:52:00,31.0,19.0,-100.00,West,275,2.0,4.0,62,-99.99,,,0.00,248.600006,,2013-02-17 23:52:00,
2013-02-17 16:00:00,29.0,19.0,-100.00,WSW,244,2.0,4.0,66,-99.99,,,0.00,135.600006,,2013-02-18 00:00:00,
2013-02-17 16:52:00,29.0,19.0,-100.00,WSW,244,2.0,4.0,66,-99.99,,,0.00,135.600006,,2013-02-18 00:52:00,
2013-02-17 17:00:00,28.0,18.0,-100.00,North,-999,-999.0,-999.0,66,-99.99,,,0.00,,,2013-02-18 01:00:00,
2013-02-17 17:52:00,28.0,18.0,-100.00,North,-999,-999.0,-999.0,66,-99.99,,,0.00,,,2013-02-18 01:52:00,
2013-02-17 18:00:00,27.0,18.0,-100.00,SW,233,1.0,3.0,68,-99.99,,,0.00,4.200000,,2013-02-18 02:00:00,
2013-02-17 18:52:00,27.0,18.0,-100.00,SW,233,1.0,3.0,68,-99.99,,,0.00,4.200000,,2013-02-18 02:52:00,
2013-02-17 19:00:00,25.0,17.0,-100.00,South,180,1.0,3.0,72,-99.99,,,0.00,-0.200000,,2013-02-18 03:00:00,
2013-02-17 20:00:00,24.0,18.0,-100.00,ESE,103,1.0,3.0,77,-99.99,,,0.00,-0.200000,,2013-02-18 04:00:00,
2013-02-17 20:52:00,24.0,18.0,-100.00,ESE,103,1.0,3.0,77,-99.99,,,0.00,-0.200000,,2013-02-18 04:52:00,
2013-02-17 21:00:00,25.0,19.0,-100.00,South,186,2.0,4.0,78,-99.99,,,0.00,-0.200000,,2013-02-18 05:00:00,
2013-02-17 21:52:00,25.0,19.0,-100.00,South,186,2.0,4.0,78,-99.99,,,0.00,-0.200000,,2013-02-18 05:52:00,
2013-02-17 22:00:00,25.0,19.0,-100.00,SE,144,2.0,4.0,77,-99.99,,,-99.99,-0.200000,,2013-02-18 06:00:00,
2013-02-17 22:52:00,25.0,19.0,-100.00,SE,144,2.0,4.0,77,-99.99,,,-99.99,-0.200000,,2013-02-18 06:52:00,
2013-02-17 23:00:00,24.0,18.0,-100.00,ESE,103,2.0,3.0,76,-99.99,,,0.00,-0.200000,,2013-02-18 07:00:00,